EW2719 Weather Reports


time (UTC)temp
C
wind
direction
speed
KPH
gust
KPH
rain 1hr
cm
rain 24hr
cm
rain mn
cm
humidity
%
barometer
mb
20260507011540 4 23 4.8 6.4 0.00 0.00 0.00 82 1013.2
20260507010036 4 19 4.8 6.4 0.00 0.00 0.00 81 1013.3
20260507004537 4 5 3.2 8.0 0.00 0.00 0.00 80 1013.3
20260507003031 5 5 6.4 9.7 0.00 0.00 0.00 79 1013.2
20260507001531 5 17 6.4 9.7 0.00 0.00 0.00 80 1013.1
20260507000029 5 15 8.0 12.9 0.00 0.00 0.00 79 1013.1
20260506234527 5 11 9.7 14.5 0.00 0.00 0.00 79 1013.1
20260506233024 5 15 6.4 11.3 0.00 0.00 0.00 77 1013.2
20260506231523 5 5 6.4 9.7 0.00 0.00 0.00 77 1013.2
20260506230021 5 5 8.0 12.9 0.00 0.00 0.00 75 1013.1
20260506224520 5 15 6.4 9.7 0.00 0.00 0.00 74 1013.0
20260506223017 5 10 6.4 9.7 0.00 0.00 0.00 74 1013.0
20260506221513 5 360 3.2 6.4 0.00 0.00 0.00 74 1012.9
20260506220028 5 355 4.8 9.7 0.00 0.00 0.00 74 1013.0
20260506214510 6 9 4.8 11.3 0.00 0.00 0.00 73 1012.7
20260506213010 6 15 6.4 12.9 0.00 0.00 0.00 74 1012.5
20260506211510 6 355 8.0 12.9 0.00 0.00 0.00 74 1012.7
20260506210013 6 360 6.4 12.9 0.00 0.00 0.00 76 1012.7
20260506204509 6 355 11.3 16.1 0.00 0.00 0.00 76 1012.6
20260506203013 6 355 11.3 16.1 0.00 0.00 0.00 76 1012.6
20260506201507 6 355 8.0 14.5 0.00 0.00 0.00 76 1012.6
20260506200005 7 360 8.0 14.5 0.00 0.00 0.00 75 1012.5
20260506194505 7 355 4.8 14.5 0.00 0.00 0.00 73 1012.4
20260506193002 8 355 8.0 16.1 0.00 0.00 0.00 72 1012.3
20260506191609 9 14 6.4 12.9 0.00 0.00 0.00 67 1011.9
20260506191501 9 18 6.4 12.9 0.00 0.00 0.00 67 1012.0
20260506190059 10 160 0.0 1.6 0.00 0.00 0.00 64 1011.7
20260506184559 11 150 0.0 1.6 0.00 0.00 0.00 63 1011.5
20260506183113 11 55 0.0 1.6 0.00 0.00 0.00 61 1011.3
20260506181601 11 44 3.2 8.0 0.00 0.00 0.00 61 1011.2
20260506180113 11 17 0.0 3.2 0.00 0.00 0.00 62 1011.2
20260506174553 11 100 0.0 6.4 0.00 0.00 0.00 64 1011.0
20260506173118 11 22 0.0 6.4 0.00 0.00 0.00 63 1010.9
20260506171548 12 35 4.8 9.7 0.00 0.00 0.00 63 1010.9
20260506170046 12 61 3.2 6.4 0.00 0.00 0.00 65 1010.8
20260506164544 12 25 6.4 14.5 0.00 0.00 0.00 60 1010.7
20260506163045 12 32 4.8 8.0 0.00 0.00 0.00 61 1010.7
20260506161552 13 30 4.8 9.7 0.00 0.00 0.00 57 1010.7
20260506160045 13 26 9.7 14.5 0.00 0.00 0.00 55 1010.7
20260506154544 13 36 4.8 14.5 0.00 0.00 0.00 48 1010.7
20260506153042 13 36 1.6 14.5 0.00 0.00 0.00 48 1010.8
20260506151545 13 36 3.2 17.7 0.00 0.00 0.00 47 1010.7
20260506150043 13 25 1.6 12.9 0.00 0.00 0.00 43 1010.8
20260506144558 14 26 9.7 12.9 0.00 0.00 0.00 51 1010.7
20260506143039 13 21 0.0 1.6 0.00 0.00 0.00 52 1010.7
20260506141540 12 17 4.8 9.7 0.00 0.00 0.00 49 1010.9
20260506140037 13 69 3.2 8.0 0.00 0.00 0.00 47 1010.9
20260506134536 13 27 4.8 16.1 0.00 0.00 0.00 52 1010.9
20260506133041 13 360 6.4 19.3 0.00 0.00 0.00 54 1010.8
20260506131534 14 74 1.6 16.1 0.00 0.00 0.00 53 1011.0
20260506130037 14 23 6.4 17.7 0.00 0.00 0.00 58 1010.9
20260506124532 14 30 14.5 20.9 0.00 0.00 0.00 59 1010.9
20260506123032 13 32 3.2 16.1 0.00 0.00 0.00 58 1011.0
20260506121530 14 11 3.2 17.7 0.00 0.00 0.00 61 1011.0
20260506120030 13 355 8.0 14.5 0.00 0.00 0.00 56 1011.1
20260506114527 13 73 1.6 11.3 0.00 0.00 0.00 56 1011.1
20260506113025 13 34 3.2 12.9 0.00 0.00 0.00 61 1011.2
20260506111524 13 355 3.2 12.9 0.00 0.00 0.00 64 1011.2
20260506110023 12 19 1.6 14.5 0.00 0.00 0.00 62 1011.3
20260506104526 12 43 1.6 12.9 0.00 0.00 0.00 66 1011.2
20260506103024 12 33 6.4 17.7 0.00 0.00 0.00 69 1011.2
20260506101523 12 21 8.0 16.1 0.00 0.00 0.00 72 1011.2
20260506100019 13 68 3.2 12.9 0.00 0.00 0.00 69 1011.2
20260506094516 12 17 1.6 14.5 0.00 0.00 0.00 62 1011.3
20260506093014 12 40 3.2 9.7 0.00 0.00 0.00 73 1011.4
20260506091517 12 46 1.6 12.9 0.00 0.00 0.00 72 1011.4
20260506090019 11 28 3.2 14.5 0.00 0.00 0.00 72 1011.4
20260506084529 11 32 8.0 14.5 0.00 0.00 0.00 74 1011.3
20260506083009 11 40 4.8 17.7 0.00 0.00 0.00 75 1011.3
20260506081509 11 55 0.0 14.5 0.00 0.00 0.00 74 1011.4
20260506073116 10 26 3.2 12.9 0.00 0.00 0.00 77 1011.4
20260506071601 10 19 4.8 12.9 0.00 0.00 0.00 81 1011.4
20260506061546 8 20 6.4 9.7 0.00 0.00 0.00 83 1011.3
20260506044533 5 360 4.8 9.7 0.00 0.00 0.00 87 1011.2
20260506043022 5 5 4.8 8.0 0.00 0.00 0.00 88 1011.2
20260506041516 4 5 4.8 8.0 0.00 0.00 0.00 88 1011.3
20260506040011 4 5 3.2 8.0 0.00 0.00 0.00 88 1011.3
20260506034509 4 348 6.4 8.0 0.00 0.00 0.00 89 1011.5
20260506033007 4 340 4.8 9.7 0.00 0.00 0.00 89 1011.6
20260506031507 3 333 6.4 12.9 0.00 0.00 0.00 89 1011.7
20260506030006 3 320 6.4 9.7 0.00 0.00 0.00 89 1011.7
20260506024503 3 312 4.8 6.4 0.00 0.00 0.00 88 1011.8
20260506023105 3 315 1.6 4.8 0.00 0.00 0.00 88 1011.9
20260506021601 3 338 0.0 4.8 0.00 0.00 0.00 88 1011.8
20260506020058 3 340 3.2 8.0 0.00 0.00 0.00 88 1011.8
20260506014558 3 350 6.4 8.0 0.00 0.00 0.00 88 1011.7
20260506013103 3 338 4.8 8.0 0.00 0.00 0.00 88 1011.6